Flag for Canada Weather past 2 weeks in Riverview, New Brunswick, Canada

Now
55 °F

Passing clouds.


Feels Like: 55 °F
Forecast: 57 / 70 °F
Wind: 2 mph from North

Location: Moncton

Current Time: Aug 22, 2014 at 1:54:17 AM

Latest Report: Aug 22, 2014 at 1:00 AM


Visibility: 15 mi

Pressure: 30.15 "Hg

Humidity: 100%

Dew point: 55 °F

Location of RiverviewLocation

Historic Weather in Riverview — Graph

°F

Riverview temperature yesterday

Maximum temperature yesterday: 70 °F (at 2:00 PM)
Minimum temperature yesterday: 54 °F (at 5:00 AM)
Average temperature yesterday: 61 °F

Past Weeks' High & Low Weather Summary

 TemperatureHumidityPressure
High77 °F (Aug 13, 3:00 PM)100% (Aug 7, 2:00 AM)30.19 "Hg (Aug 7, 2:00 AM)
Low52 °F (Aug 12, 3:00 AM)41% (Aug 12, 6:00 PM)29.58 "Hg (Aug 18, 3:00 PM)
Average63 °F84%29.92 "Hg
* Reported Midnight between Aug 6 and Aug 7 — Midnight between Aug 21 and Aug 22, Riverview, Weather by CustomWeather, © 2014

Note: Actual official high and low records may vary slightly from our data, if they occured in-between our weather recording intervals... More about our weather records

Advertising

Riverview weather history for previous 24 hours

 ConditionsComfort  
Time TempWeatherWind HumidityBarometerVisibility
12:00 AM
Aug 22
57 °FPassing clouds.5 mph94%30.16 "Hg15 mi
11:00 PM
Aug 21
57 °FPartly cloudy.7 mph94%30.15 "Hg15 mi
10:00 PM59 °FPartly cloudy.5 mph94%30.16 "Hg15 mi
9:00 PM57 °FBroken clouds.5 mph94%30.16 "Hg15 mi
8:00 PM61 °FMore clouds than sun.6 mph88%30.15 "Hg15 mi
7:00 PM64 °FMore clouds than sun.8 mph73%30.14 "Hg15 mi
6:00 PM68 °FPartly sunny.13 mph64%30.13 "Hg15 mi
5:00 PM70 °FBroken clouds.12 mph64%30.14 "Hg15 mi
4:00 PM70 °FBroken clouds.8 mph64%30.13 "Hg15 mi
3:00 PM70 °FBroken clouds.9 mph64%30.13 "Hg15 mi
2:00 PM70 °FPartly sunny.12 mph64%30.14 "Hg15 mi
1:00 PM68 °FPartly sunny.8 mph78%30.14 "Hg15 mi
12:00 PM68 °FBroken clouds.8 mph78%30.15 "Hg15 mi
11:00 AM64 °FOvercast.6 mph83%30.16 "Hg15 mi
10:00 AM63 °FPartly sunny.6 mph88%30.14 "Hg15 mi
9:00 AM61 °FPartly sunny.3 mph88%30.14 "Hg15 mi
8:00 AM57 °FPartly sunny.5 mph94%30.13 "Hg15 mi
7:04 AM54 °FPassing clouds.6 mph100%30.12 "Hg15 mi
6:51 AM54 °FFog.7 mph94%30.12 "Hg1 mi
6:00 AM54 °FPassing clouds.3 mph100%30.10 "Hg15 mi
5:00 AM54 °FClear.2 mph94%30.09 "Hg15 mi
4:00 AM55 °FClear.2 mph94%30.08 "Hg15 mi
3:00 AM57 °FClear.5 mph94%30.08 "Hg15 mi
2:00 AM55 °FClear.2 mph94%30.08 "Hg15 mi
1:00 AM57 °FPassing clouds.6 mph94%30.09 "Hg15 mi
Weather by CustomWeather, © 2014

See weather overviewHow to use our weather pages